User: anonymous   Login
Location: Hilton Head Island
(32.2163°N, 80.7526°W)
Time: 13:33:05
(UTC-05:00)
Language:

Injun/Solrad 3 - Orbit

View from above orbital plane
View from above orbital plane
View from above satellite
View from above satellite

Ground track
Ground track

The orbit is defined by the following mean orbital elements,

1 00117U          26049.16683789 +.00000000 +00000-0 +66171-4 0 00006
2 00117  66.8127 295.3068 0075616  16.3503 343.9989 13.90176530    07
Epoch (UTC): 18 February 2026 04:00:14
Eccentricity: 0.0075616
inclination: 66.8127°
perigee height: 873 km
apogee height: 983 km
right ascension of ascending node: 295.3068°
argument of perigee: 16.3503°
revolutions per day: 13.90176530
mean anomaly at epoch: 343.9989°

The dashed part of the orbit path shows where the satellite is in the earth's shadow,  

DLR